Time,TemperatureF,DewpointF,PressureIn,WindDirection,WindDirectionDegrees,WindSpeedMPH,WindSpeedGustMPH,Humidity,HourlyPrecipIn,Conditions,Clouds,dailyrainin,SolarRadiationWatts/m^2,SoftwareType,DateUTC
2013-07-27 00:03:00,78.6,55.6,30.01,SW,225,0.0,0.0,45,0.00,,,0.00,0.0,meteohub,2013-07-27 07:03:00,
2013-07-27 00:08:00,78.4,54.7,30.00,SW,225,0.0,0.0,44,0.00,,,0.00,0.0,meteohub,2013-07-27 07:08:00,
2013-07-27 00:13:00,78.3,54.0,30.01,SW,225,0.0,0.0,43,0.00,,,0.00,0.0,meteohub,2013-07-27 07:13:00,
2013-07-27 00:18:00,77.9,53.6,30.01,SW,225,0.0,0.0,43,0.00,,,0.00,0.0,meteohub,2013-07-27 07:18:00,
2013-07-27 00:23:00,77.5,53.2,30.00,SW,225,0.0,0.0,43,0.00,,,0.00,0.0,meteohub,2013-07-27 07:23:00,
2013-07-27 00:28:00,77.4,53.8,30.00,SW,225,0.0,0.0,44,0.00,,,0.00,0.0,meteohub,2013-07-27 07:28:00,
2013-07-27 00:33:00,77.4,53.8,30.00,SW,225,0.0,0.0,44,0.00,,,0.00,0.0,meteohub,2013-07-27 07:33:00,
2013-07-27 00:38:00,77.4,54.3,30.00,SW,225,0.0,0.0,45,0.00,,,0.00,0.0,meteohub,2013-07-27 07:38:00,
2013-07-27 00:43:00,77.4,54.3,30.00,SW,225,0.0,0.0,45,0.00,,,0.00,0.0,meteohub,2013-07-27 07:43:00,
2013-07-27 00:48:00,77.4,54.3,30.00,SW,225,0.0,0.0,45,0.00,,,0.00,0.0,meteohub,2013-07-27 07:48:00,
2013-07-27 00:53:00,77.4,55.0,30.00,SW,225,0.0,0.0,46,0.00,,,0.00,0.0,meteohub,2013-07-27 07:53:00,
2013-07-27 00:58:00,77.4,55.6,30.00,SW,225,0.0,0.0,47,0.00,,,0.00,0.0,meteohub,2013-07-27 07:58:00,
2013-07-27 01:03:00,77.2,55.9,30.00,SW,225,0.0,0.0,48,0.00,,,0.00,0.0,meteohub,2013-07-27 08:03:00,
2013-07-27 01:08:00,77.2,55.9,30.00,SW,225,0.0,0.0,48,0.00,,,0.00,0.0,meteohub,2013-07-27 08:08:00,
2013-07-27 01:13:00,77.2,56.5,30.00,SW,225,0.0,0.0,49,0.00,,,0.00,0.0,meteohub,2013-07-27 08:13:00,
2013-07-27 01:18:00,77.0,56.3,30.00,SW,225,0.0,0.0,49,0.00,,,0.00,0.0,meteohub,2013-07-27 08:18:00,
2013-07-27 01:23:00,76.8,56.3,30.00,SW,225,0.0,0.0,49,0.00,,,0.00,0.0,meteohub,2013-07-27 08:23:00,
2013-07-27 01:28:00,76.6,56.1,29.99,SW,225,0.0,0.0,49,0.00,,,0.00,0.0,meteohub,2013-07-27 08:28:00,
2013-07-27 01:33:00,76.6,56.1,29.99,SW,225,0.0,0.0,49,0.00,,,0.00,0.0,meteohub,2013-07-27 08:33:00,
2013-07-27 01:38:00,76.5,55.9,29.99,SW,225,0.0,0.0,49,0.00,,,0.00,0.0,meteohub,2013-07-27 08:38:00,
2013-07-27 01:43:00,76.3,55.8,29.99,SW,225,0.0,0.0,49,0.00,,,0.00,0.0,meteohub,2013-07-27 08:43:00,
2013-07-27 01:48:00,76.3,56.3,29.99,SW,225,0.0,0.0,50,0.00,,,0.00,0.0,meteohub,2013-07-27 08:48:00,
2013-07-27 01:53:00,76.1,56.1,29.99,SW,225,0.0,0.0,50,0.00,,,0.00,0.0,meteohub,2013-07-27 08:53:00,
2013-07-27 01:59:00,75.9,55.9,29.99,SW,225,0.0,0.0,50,0.00,,,0.00,0.0,meteohub,2013-07-27 08:59:00,
2013-07-27 02:04:00,75.9,56.5,29.99,SW,225,0.0,0.0,51,0.00,,,0.00,0.0,meteohub,2013-07-27 09:04:00,
2013-07-27 02:09:00,75.9,56.5,29.99,SW,225,0.0,0.0,51,0.00,,,0.00,0.0,meteohub,2013-07-27 09:09:00,
2013-07-27 02:14:00,75.7,56.8,29.99,SW,225,0.0,0.0,52,0.00,,,0.00,0.0,meteohub,2013-07-27 09:14:00,
2013-07-27 02:19:00,75.7,56.8,29.99,SW,225,0.0,0.0,52,0.00,,,0.00,0.0,meteohub,2013-07-27 09:19:00,
2013-07-27 02:24:00,75.6,57.2,29.99,SW,225,0.0,0.0,53,0.00,,,0.00,0.0,meteohub,2013-07-27 09:24:00,
2013-07-27 02:29:00,75.4,56.5,29.99,SW,225,0.0,0.0,52,0.00,,,0.00,0.0,meteohub,2013-07-27 09:29:00,
2013-07-27 02:34:00,75.2,55.8,29.99,SW,225,0.0,0.0,51,0.00,,,0.00,0.0,meteohub,2013-07-27 09:34:00,
2013-07-27 02:39:00,75.0,56.1,29.99,SW,225,0.0,0.0,52,0.00,,,0.00,0.0,meteohub,2013-07-27 09:39:00,
2013-07-27 02:44:00,74.8,55.6,29.99,SW,225,0.0,0.0,51,0.00,,,0.00,0.0,meteohub,2013-07-27 09:44:00,
2013-07-27 02:49:00,74.8,55.6,29.99,SW,225,0.0,0.0,51,0.00,,,0.00,0.0,meteohub,2013-07-27 09:49:00,
2013-07-27 02:54:00,74.8,56.1,29.99,SW,225,0.0,0.0,52,0.00,,,0.00,0.0,meteohub,2013-07-27 09:54:00,
2013-07-27 02:59:00,74.8,56.1,29.99,SW,225,0.0,0.0,52,0.00,,,0.00,0.0,meteohub,2013-07-27 09:59:00,
2013-07-27 03:04:00,74.7,55.4,29.98,SW,225,0.0,0.0,51,0.00,,,0.00,0.0,meteohub,2013-07-27 10:04:00,
2013-07-27 03:09:00,74.7,55.4,29.98,SW,225,0.0,0.0,51,0.00,,,0.00,0.0,meteohub,2013-07-27 10:09:00,
2013-07-27 03:14:00,74.7,56.5,29.98,SW,225,0.0,0.0,53,0.00,,,0.00,0.0,meteohub,2013-07-27 10:14:00,
2013-07-27 03:19:00,74.7,55.9,29.98,SW,225,0.0,0.0,52,0.00,,,0.00,0.0,meteohub,2013-07-27 10:19:00,
2013-07-27 03:24:00,74.5,55.2,29.98,SW,225,0.0,0.0,51,0.00,,,0.00,0.0,meteohub,2013-07-27 10:24:00,
2013-07-27 03:29:00,74.5,54.7,29.98,SW,225,0.0,0.0,50,0.00,,,0.00,0.0,meteohub,2013-07-27 10:29:00,
2013-07-27 03:34:00,74.7,54.3,29.98,SW,225,0.0,0.0,49,0.00,,,0.00,0.0,meteohub,2013-07-27 10:34:00,
2013-07-27 03:39:00,75.0,53.4,29.98,SW,225,0.0,0.0,47,0.00,,,0.00,0.0,meteohub,2013-07-27 10:39:00,
2013-07-27 03:44:00,75.7,53.4,29.98,SW,225,0.0,0.0,46,0.00,,,0.00,0.0,meteohub,2013-07-27 10:44:00,
2013-07-27 03:49:00,77.0,53.4,29.98,SW,224,1.0,0.0,44,0.00,,,0.00,0.0,meteohub,2013-07-27 10:49:00,
2013-07-27 03:54:00,78.1,53.8,29.98,SW,223,5.0,0.0,43,0.00,,,0.00,0.0,meteohub,2013-07-27 10:54:00,
2013-07-27 03:59:00,79.2,53.4,29.98,SW,231,8.0,0.0,41,0.00,,,0.00,0.0,meteohub,2013-07-27 10:59:00,
2013-07-27 04:04:00,79.5,53.8,29.98,SW,230,2.0,8.0,41,0.00,,,0.00,0.0,meteohub,2013-07-27 11:04:00,
2013-07-27 04:09:00,80.1,53.6,29.98,SW,232,7.0,8.0,40,0.00,,,0.00,0.0,meteohub,2013-07-27 11:09:00,
2013-07-27 04:14:00,80.1,53.6,29.98,SW,233,2.0,8.0,40,0.00,,,0.00,0.0,meteohub,2013-07-27 11:14:00,
2013-07-27 04:19:00,80.1,53.6,29.98,SW,232,7.0,8.0,40,0.00,,,0.00,0.0,meteohub,2013-07-27 11:19:00,
2013-07-27 04:24:00,80.1,54.3,29.98,SW,234,4.0,8.0,41,0.00,,,0.00,0.0,meteohub,2013-07-27 11:24:00,
2013-07-27 04:29:00,80.1,54.3,29.98,SW,227,2.0,8.0,41,0.00,,,0.00,0.0,meteohub,2013-07-27 11:29:00,
2013-07-27 04:34:00,79.9,54.1,29.98,SW,226,8.0,8.0,41,0.00,,,0.00,0.0,meteohub,2013-07-27 11:34:00,
2013-07-27 04:39:00,80.1,54.3,29.98,SW,227,7.0,8.0,41,0.00,,,0.00,0.0,meteohub,2013-07-27 11:39:00,
2013-07-27 04:44:00,80.1,54.3,29.98,SW,230,3.0,8.0,41,0.00,,,0.00,0.0,meteohub,2013-07-27 11:44:00,
2013-07-27 04:49:00,80.1,54.3,29.98,SW,230,7.0,11.0,41,0.00,,,0.00,0.0,meteohub,2013-07-27 11:49:00,
2013-07-27 04:54:00,80.1,54.3,29.98,SW,229,4.0,11.0,41,0.00,,,0.00,0.0,meteohub,2013-07-27 11:54:00,
2013-07-27 04:59:00,80.1,54.3,29.98,SW,229,2.0,11.0,41,0.00,,,0.00,0.0,meteohub,2013-07-27 11:59:00,
2013-07-27 05:05:00,80.1,54.9,29.98,SW,229,2.0,11.0,42,0.00,,,0.00,0.0,meteohub,2013-07-27 12:05:00,
2013-07-27 05:10:00,79.9,54.7,29.98,SW,229,2.0,11.0,42,0.00,,,0.00,0.0,meteohub,2013-07-27 12:10:00,
2013-07-27 05:15:00,79.9,54.7,29.99,SW,229,2.0,11.0,42,0.00,,,0.00,0.0,meteohub,2013-07-27 12:15:00,
2013-07-27 05:20:00,79.7,54.5,29.99,SW,229,2.0,11.0,42,0.00,,,0.00,0.0,meteohub,2013-07-27 12:20:00,
2013-07-27 05:25:00,79.5,54.5,29.99,SW,229,0.0,5.0,42,0.00,,,0.00,0.0,meteohub,2013-07-27 12:25:00,
2013-07-27 05:30:00,79.3,54.9,29.99,SW,229,0.0,5.0,43,0.00,,,0.00,0.0,meteohub,2013-07-27 12:30:00,
2013-07-27 05:35:00,79.2,54.7,29.99,SW,229,0.0,5.0,43,0.00,,,0.00,0.0,meteohub,2013-07-27 12:35:00,
2013-07-27 05:40:00,79.2,54.7,29.99,SW,229,0.0,5.0,43,0.00,,,0.00,0.0,meteohub,2013-07-27 12:40:00,
2013-07-27 05:45:00,79.0,55.2,29.99,SW,229,0.0,5.0,44,0.00,,,0.00,0.0,meteohub,2013-07-27 12:45:00,
2013-07-27 05:50:00,78.8,55.6,29.99,SW,229,0.0,5.0,45,0.00,,,0.00,0.0,meteohub,2013-07-27 12:50:00,
2013-07-27 05:55:00,78.6,56.1,29.99,SW,229,0.0,5.0,46,0.00,,,0.00,0.0,meteohub,2013-07-27 12:55:00,
2013-07-27 06:00:00,78.3,55.8,29.99,SW,229,0.0,5.0,46,0.00,,,0.00,0.0,meteohub,2013-07-27 13:00:00,
2013-07-27 06:05:00,78.1,55.6,29.99,SW,229,0.0,0.0,46,0.00,,,0.00,5.0,meteohub,2013-07-27 13:05:00,
2013-07-27 06:10:00,77.7,55.2,29.99,SW,229,0.0,0.0,46,0.00,,,0.00,7.0,meteohub,2013-07-27 13:10:00,
2013-07-27 06:15:00,77.4,55.6,29.99,SW,229,0.0,0.0,47,0.00,,,0.00,11.0,meteohub,2013-07-27 13:15:00,
2013-07-27 06:20:00,77.0,55.8,30.00,SW,229,0.0,0.0,48,0.00,,,0.00,14.0,meteohub,2013-07-27 13:20:00,
2013-07-27 06:25:00,76.6,56.1,30.00,SW,229,0.0,0.0,49,0.00,,,0.00,16.0,meteohub,2013-07-27 13:25:00,
2013-07-27 06:30:00,76.3,56.3,30.00,SW,229,0.0,0.0,50,0.00,,,0.00,23.0,meteohub,2013-07-27 13:30:00,
2013-07-27 06:35:00,75.9,57.0,30.00,SW,229,0.0,0.0,52,0.00,,,0.00,26.0,meteohub,2013-07-27 13:35:00,
2013-07-27 06:40:00,75.7,56.8,30.00,SW,229,0.0,0.0,52,0.00,,,0.00,28.0,meteohub,2013-07-27 13:40:00,
2013-07-27 06:45:00,75.7,56.8,30.00,SW,229,0.0,0.0,52,0.00,,,0.00,33.0,meteohub,2013-07-27 13:45:00,
2013-07-27 06:50:00,75.6,56.7,30.00,SW,229,0.0,0.0,52,0.00,,,0.00,42.0,meteohub,2013-07-27 13:50:00,
2013-07-27 06:55:00,75.7,57.4,29.99,SW,229,0.0,0.0,53,0.00,,,0.00,54.0,meteohub,2013-07-27 13:55:00,
2013-07-27 07:00:00,75.9,57.6,29.99,SW,229,0.0,0.0,53,0.00,,,0.00,76.0,meteohub,2013-07-27 14:00:00,
2013-07-27 07:05:00,76.3,57.9,29.99,SW,229,0.0,0.0,53,0.00,,,0.00,93.0,meteohub,2013-07-27 14:05:00,
2013-07-27 07:10:00,76.6,58.3,29.99,SW,229,0.0,0.0,53,0.00,,,0.00,113.0,meteohub,2013-07-27 14:10:00,
2013-07-27 07:15:00,77.2,58.3,30.00,SW,229,0.0,0.0,52,0.00,,,0.00,130.0,meteohub,2013-07-27 14:15:00,
2013-07-27 07:20:00,77.5,57.9,30.00,SW,229,0.0,0.0,51,0.00,,,0.00,148.0,meteohub,2013-07-27 14:20:00,
2013-07-27 07:25:00,78.1,58.5,30.00,SW,229,0.0,0.0,51,0.00,,,0.00,162.0,meteohub,2013-07-27 14:25:00,
2013-07-27 07:30:00,78.6,58.5,30.00,SW,229,0.0,0.0,50,0.00,,,0.00,178.0,meteohub,2013-07-27 14:30:00,
2013-07-27 07:35:00,79.3,59.0,30.00,SW,229,0.0,0.0,50,0.00,,,0.00,195.0,meteohub,2013-07-27 14:35:00,
2013-07-27 07:40:00,79.9,60.1,30.00,SW,229,0.0,0.0,51,0.00,,,0.00,211.0,meteohub,2013-07-27 14:40:00,
2013-07-27 07:46:00,80.2,59.4,30.00,SW,229,0.0,0.0,49,0.00,,,0.00,227.0,meteohub,2013-07-27 14:46:00,
2013-07-27 07:51:00,80.8,59.2,30.00,SW,229,0.0,0.0,48,0.00,,,0.00,243.0,meteohub,2013-07-27 14:51:00,
2013-07-27 07:56:00,81.3,60.3,30.00,SW,229,0.0,0.0,49,0.00,,,0.00,257.0,meteohub,2013-07-27 14:56:00,
2013-07-27 08:01:00,82.0,60.4,30.00,SW,229,0.0,0.0,48,0.00,,,0.00,272.0,meteohub,2013-07-27 15:01:00,
2013-07-27 08:06:00,82.8,60.4,30.01,SW,229,0.0,0.0,47,0.00,,,0.00,290.0,meteohub,2013-07-27 15:06:00,
2013-07-27 08:11:00,83.5,59.9,30.00,SW,229,0.0,0.0,45,0.00,,,0.00,308.0,meteohub,2013-07-27 15:11:00,
2013-07-27 08:16:00,84.0,59.7,30.01,SW,229,0.0,0.0,44,0.00,,,0.00,325.0,meteohub,2013-07-27 15:16:00,
2013-07-27 08:21:00,84.6,59.0,30.00,SW,229,0.0,0.0,42,0.00,,,0.00,345.0,meteohub,2013-07-27 15:21:00,
2013-07-27 08:26:00,85.1,58.8,30.01,SW,229,0.0,0.0,41,0.00,,,0.00,360.0,meteohub,2013-07-27 15:26:00,
2013-07-27 08:31:00,85.5,58.5,30.00,SW,229,0.0,0.0,40,0.00,,,0.00,374.0,meteohub,2013-07-27 15:31:00,
2013-07-27 08:36:00,85.8,58.6,30.01,SW,229,0.0,0.0,40,0.00,,,0.00,390.0,meteohub,2013-07-27 15:36:00,
2013-07-27 08:41:00,86.4,58.5,30.01,SW,229,0.0,0.0,39,0.00,,,0.00,410.0,meteohub,2013-07-27 15:41:00,
2013-07-27 08:46:00,86.5,57.9,30.00,SW,229,0.0,0.0,38,0.00,,,0.00,425.0,meteohub,2013-07-27 15:46:00,
2013-07-27 08:51:00,87.1,57.6,30.00,SW,229,0.0,0.0,37,0.00,,,0.00,443.0,meteohub,2013-07-27 15:51:00,
2013-07-27 08:57:00,87.6,59.5,30.00,SW,229,0.0,0.0,39,0.00,,,0.00,462.0,meteohub,2013-07-27 15:57:00,
2013-07-27 09:02:00,88.2,59.4,30.00,SW,229,0.0,0.0,38,0.00,,,0.00,482.0,meteohub,2013-07-27 16:02:00,
2013-07-27 09:07:00,88.3,58.8,30.00,SW,229,0.0,0.0,37,0.00,,,0.00,494.0,meteohub,2013-07-27 16:07:00,
2013-07-27 09:12:00,88.3,57.9,30.00,SW,229,0.0,0.0,36,0.00,,,0.00,512.0,meteohub,2013-07-27 16:12:00,
2013-07-27 09:17:00,88.5,57.4,30.00,SW,229,0.0,0.0,35,0.00,,,0.00,526.0,meteohub,2013-07-27 16:17:00,
2013-07-27 09:22:00,89.1,57.0,30.00,SW,229,0.0,0.0,34,0.00,,,0.00,540.0,meteohub,2013-07-27 16:22:00,
2013-07-27 09:27:00,89.4,58.1,29.99,SW,229,0.0,0.0,35,0.00,,,0.00,557.0,meteohub,2013-07-27 16:27:00,
2013-07-27 09:32:00,89.8,57.7,29.99,SW,229,0.0,3.0,34,0.00,,,0.00,571.0,meteohub,2013-07-27 16:32:00,
2013-07-27 09:37:00,90.3,59.7,29.99,SW,229,0.0,3.0,36,0.00,,,0.00,589.0,meteohub,2013-07-27 16:37:00,
2013-07-27 09:42:00,90.3,58.1,29.99,WSW,241,0.0,3.0,34,0.00,,,0.00,603.0,meteohub,2013-07-27 16:42:00,
2013-07-27 09:47:00,90.3,58.1,29.99,WSW,241,0.0,3.0,34,0.00,,,0.00,617.0,meteohub,2013-07-27 16:47:00,
2013-07-27 09:52:00,90.1,59.5,29.99,West,281,8.0,8.0,36,0.00,,,0.00,633.0,meteohub,2013-07-27 16:52:00,
2013-07-27 09:57:00,90.0,58.6,29.99,North,0,4.0,4.0,35,0.00,,,0.00,645.0,meteohub,2013-07-27 16:57:00,
2013-07-27 10:03:00,89.8,59.2,29.99,North,5,0.0,3.0,36,0.00,,,0.00,657.0,meteohub,2013-07-27 17:03:00,
2013-07-27 10:08:00,90.0,60.3,29.99,NW,317,1.0,3.0,37,0.00,,,0.00,673.0,meteohub,2013-07-27 17:08:00,
2013-07-27 10:13:00,90.1,60.4,29.99,NNW,340,1.0,9.0,37,0.00,,,0.00,687.0,meteohub,2013-07-27 17:13:00,
2013-07-27 10:18:00,90.5,61.3,29.99,NNW,343,0.0,9.0,38,0.00,,,0.00,703.0,meteohub,2013-07-27 17:18:00,
2013-07-27 10:23:00,90.9,60.3,29.98,NNW,343,1.0,9.0,36,0.00,,,0.00,717.0,meteohub,2013-07-27 17:23:00,
2013-07-27 10:28:00,91.0,60.4,29.98,North,0,0.0,9.0,36,0.00,,,0.00,729.0,meteohub,2013-07-27 17:28:00,
2013-07-27 10:33:00,91.0,60.4,29.98,North,5,0.0,9.0,36,0.00,,,0.00,742.0,meteohub,2013-07-27 17:33:00,
2013-07-27 10:38:00,91.2,59.7,29.98,NNE,18,0.0,9.0,35,0.00,,,0.00,754.0,meteohub,2013-07-27 17:38:00,
2013-07-27 10:43:00,91.8,59.4,29.98,NE,42,0.0,9.0,34,0.00,,,0.00,765.0,meteohub,2013-07-27 17:43:00,
2013-07-27 10:48:00,91.9,60.4,29.98,NE,42,0.0,9.0,35,0.00,,,0.00,779.0,meteohub,2013-07-27 17:48:00,
2013-07-27 10:53:00,91.8,59.4,29.98,NE,42,0.0,9.0,34,0.00,,,0.00,788.0,meteohub,2013-07-27 17:53:00,
2013-07-27 10:58:00,91.9,60.4,29.97,NE,55,6.0,7.0,35,0.00,,,0.00,798.0,meteohub,2013-07-27 17:58:00,
2013-07-27 11:03:00,92.1,60.4,29.97,ENE,58,1.0,7.0,35,0.00,,,0.00,809.0,meteohub,2013-07-27 18:03:00,
2013-07-27 11:08:00,92.8,61.2,29.97,ENE,73,2.0,7.0,35,0.00,,,0.00,821.0,meteohub,2013-07-27 18:08:00,
2013-07-27 11:13:00,93.2,60.6,29.97,East,81,0.0,7.0,34,0.00,,,0.00,835.0,meteohub,2013-07-27 18:13:00,
2013-07-27 11:18:00,93.7,60.3,29.97,East,86,5.0,7.0,33,0.00,,,0.00,853.0,meteohub,2013-07-27 18:18:00,
2013-07-27 11:23:00,93.6,60.1,29.97,ESE,105,1.0,7.0,33,0.00,,,0.00,422.0,meteohub,2013-07-27 18:23:00,
2013-07-27 11:28:00,93.6,60.1,29.97,ESE,105,0.0,7.0,33,0.00,,,0.00,919.0,meteohub,2013-07-27 18:28:00,
2013-07-27 11:33:00,93.6,60.1,29.97,ESE,105,2.0,7.0,33,0.00,,,0.00,942.0,meteohub,2013-07-27 18:33:00,
2013-07-27 11:38:00,93.9,60.4,29.97,ESE,105,0.0,7.0,33,0.00,,,0.00,904.0,meteohub,2013-07-27 18:38:00,
2013-07-27 11:43:00,94.6,60.3,29.96,ESE,108,5.0,7.0,32,0.00,,,0.00,905.0,meteohub,2013-07-27 18:43:00,
2013-07-27 11:48:00,94.6,60.3,29.96,SE,129,0.0,7.0,32,0.00,,,0.00,902.0,meteohub,2013-07-27 18:48:00,
2013-07-27 11:53:00,94.8,59.5,29.96,SE,128,4.0,7.0,31,0.00,,,0.00,904.0,meteohub,2013-07-27 18:53:00,
2013-07-27 11:58:00,94.6,60.3,29.96,SE,128,2.0,7.0,32,0.00,,,0.00,919.0,meteohub,2013-07-27 18:58:00,
2013-07-27 12:03:00,95.2,59.7,29.96,ESE,121,5.0,7.0,31,0.00,,,0.00,919.0,meteohub,2013-07-27 19:03:00,
2013-07-27 12:08:00,95.7,62.8,29.95,ESE,121,0.0,7.0,34,0.00,,,0.00,925.0,meteohub,2013-07-27 19:08:00,
2013-07-27 12:13:00,95.4,61.7,29.95,ESE,107,6.0,7.0,33,0.00,,,0.00,932.0,meteohub,2013-07-27 19:13:00,
2013-07-27 12:18:00,95.0,60.4,29.95,East,81,0.0,7.0,32,0.00,,,0.00,928.0,meteohub,2013-07-27 19:18:00,
2013-07-27 12:19:00,94.8,60.4,29.95,East,81,1.0,7.0,32,0.00,,,0.00,930.0,meteohub,2013-07-27 19:19:00,
2013-07-27 12:24:00,95.2,59.7,29.95,East,81,0.0,7.0,31,0.00,,,0.00,939.0,meteohub,2013-07-27 19:24:00,
2013-07-27 12:29:00,95.2,59.7,29.94,East,81,1.0,7.0,31,0.00,,,0.00,949.0,meteohub,2013-07-27 19:29:00,
2013-07-27 12:34:00,96.1,60.6,29.94,East,81,0.0,9.0,31,0.00,,,0.00,946.0,meteohub,2013-07-27 19:34:00,
2013-07-27 12:39:00,95.7,59.4,29.94,East,81,0.0,9.0,30,0.00,,,0.00,949.0,meteohub,2013-07-27 19:39:00,
2013-07-27 12:44:00,96.4,59.9,29.94,East,81,0.0,9.0,30,0.00,,,0.00,965.0,meteohub,2013-07-27 19:44:00,
2013-07-27 12:49:00,97.2,61.5,29.94,East,82,0.0,9.0,31,0.00,,,0.00,970.0,meteohub,2013-07-27 19:49:00,
2013-07-27 12:54:00,97.5,60.8,29.94,ENE,76,0.0,9.0,30,0.00,,,0.00,970.0,meteohub,2013-07-27 19:54:00,
2013-07-27 12:59:00,97.3,60.8,29.93,NNE,25,5.0,9.0,30,0.00,,,0.00,972.0,meteohub,2013-07-27 19:59:00,
2013-07-27 13:04:00,96.3,60.6,29.93,NNE,13,6.0,9.0,31,0.00,,,0.00,990.0,meteohub,2013-07-27 20:04:00,
2013-07-27 13:09:00,95.5,60.1,29.93,NNE,12,0.0,9.0,31,0.00,,,0.00,981.0,meteohub,2013-07-27 20:09:00,
2013-07-27 13:14:00,96.1,59.5,29.92,North,10,0.0,9.0,30,0.00,,,0.00,977.0,meteohub,2013-07-27 20:14:00,
2013-07-27 13:19:00,96.4,61.7,29.92,North,10,0.0,9.0,32,-99.99,,,0.00,990.0,meteohub,2013-07-27 20:19:00,
2013-07-27 13:24:00,97.0,62.2,29.92,NNE,20,5.0,9.0,32,0.00,,,0.00,1023.0,meteohub,2013-07-27 20:24:00,
2013-07-27 13:29:00,96.8,63.0,29.91,NNE,23,4.0,6.0,33,0.00,,,0.00,969.0,meteohub,2013-07-27 20:29:00,
2013-07-27 13:34:00,96.6,61.9,29.91,NNW,338,4.0,6.0,32,0.00,,,0.00,1020.0,meteohub,2013-07-27 20:34:00,
2013-07-27 13:40:00,96.1,60.6,29.91,NNW,338,0.0,6.0,31,0.00,,,0.00,965.0,meteohub,2013-07-27 20:40:00,
2013-07-27 13:45:00,97.0,61.3,29.91,NW,325,9.0,9.0,31,0.00,,,0.00,1072.0,meteohub,2013-07-27 20:45:00,
2013-07-27 13:50:00,97.3,60.8,29.90,NW,313,4.0,6.0,30,0.00,,,0.00,1030.0,meteohub,2013-07-27 20:50:00,
2013-07-27 13:55:00,97.9,61.2,29.90,WNW,298,0.0,6.0,30,0.00,,,0.00,1035.0,meteohub,2013-07-27 20:55:00,
2013-07-27 14:00:00,97.5,60.8,29.90,NW,318,6.0,6.0,30,0.00,,,0.00,1041.0,meteohub,2013-07-27 21:00:00,
2013-07-27 14:05:00,97.0,61.3,29.90,NW,322,2.0,6.0,31,0.00,,,0.00,1081.0,meteohub,2013-07-27 21:05:00,
2013-07-27 14:10:00,97.0,60.4,29.90,NNW,335,6.0,6.0,30,0.00,,,0.00,1053.0,meteohub,2013-07-27 21:10:00,
2013-07-27 14:15:00,97.0,60.4,29.89,NNW,336,1.0,6.0,30,0.00,,,0.00,290.0,meteohub,2013-07-27 21:15:00,
2013-07-27 14:20:00,97.0,61.3,29.89,WNW,284,1.0,8.0,31,0.00,,,0.00,260.0,meteohub,2013-07-27 21:20:00,
2013-07-27 14:25:00,97.0,60.4,29.89,WNW,295,2.0,8.0,30,0.00,,,0.00,229.0,meteohub,2013-07-27 21:25:00,
2013-07-27 14:30:00,97.0,60.4,29.89,WNW,292,0.0,8.0,30,0.00,,,0.00,216.0,meteohub,2013-07-27 21:30:00,
2013-07-27 14:35:00,97.0,61.3,29.88,WNW,285,0.0,8.0,31,0.00,,,0.00,265.0,meteohub,2013-07-27 21:35:00,
2013-07-27 14:40:00,97.2,60.6,29.88,West,281,0.0,8.0,30,0.00,,,0.00,320.0,meteohub,2013-07-27 21:40:00,
2013-07-27 14:45:00,97.3,60.8,29.88,WNW,286,3.0,8.0,30,0.00,,,0.00,313.0,meteohub,2013-07-27 21:45:00,
2013-07-27 14:50:00,97.0,60.4,29.88,WNW,291,2.0,8.0,30,0.00,,,0.00,255.0,meteohub,2013-07-27 21:50:00,
2013-07-27 14:55:00,96.6,60.1,29.88,WNW,291,0.0,8.0,30,0.00,,,0.00,315.0,meteohub,2013-07-27 21:55:00,
2013-07-27 15:00:00,96.3,59.7,29.88,WNW,291,0.0,8.0,30,0.00,,,0.00,329.0,meteohub,2013-07-27 22:00:00,
2013-07-27 15:05:00,97.2,60.6,29.87,WSW,246,0.0,8.0,30,0.00,,,0.00,246.0,meteohub,2013-07-27 22:05:00,
2013-07-27 15:10:00,97.2,59.5,29.87,SW,217,5.0,6.0,29,0.00,,,0.00,241.0,meteohub,2013-07-27 22:10:00,
2013-07-27 15:15:00,96.8,59.4,29.87,South,180,7.0,7.0,29,0.00,,,0.00,243.0,meteohub,2013-07-27 22:15:00,
2013-07-27 15:20:00,97.0,60.4,29.86,South,188,6.0,6.0,30,0.00,,,0.00,882.0,meteohub,2013-07-27 22:20:00,
2013-07-27 15:25:00,97.3,59.7,29.86,SW,228,7.0,7.0,29,0.00,,,0.00,833.0,meteohub,2013-07-27 22:25:00,
2013-07-27 15:30:00,97.3,58.8,29.86,South,187,8.0,8.0,28,0.00,,,0.00,715.0,meteohub,2013-07-27 22:30:00,
2013-07-27 15:35:00,97.2,59.5,29.86,SSW,198,7.0,7.0,29,0.00,,,0.00,763.0,meteohub,2013-07-27 22:35:00,
2013-07-27 15:40:00,97.0,58.5,29.86,SW,223,5.0,6.0,28,0.00,,,0.00,744.0,meteohub,2013-07-27 22:40:00,
2013-07-27 15:45:00,96.8,58.3,29.86,SW,223,7.0,7.0,28,0.00,,,0.00,737.0,meteohub,2013-07-27 22:45:00,
2013-07-27 15:50:00,96.6,59.2,29.86,SW,214,1.0,6.0,29,0.00,,,0.00,745.0,meteohub,2013-07-27 22:50:00,
2013-07-27 15:55:00,96.6,59.2,29.86,SW,217,10.0,18.0,29,0.00,,,0.00,721.0,meteohub,2013-07-27 22:55:00,
2013-07-27 16:00:00,96.6,58.1,29.86,South,175,4.0,18.0,28,0.00,,,0.00,707.0,meteohub,2013-07-27 23:00:00,
2013-07-27 16:05:00,96.4,59.0,29.86,SSW,208,1.0,18.0,29,0.00,,,0.00,701.0,meteohub,2013-07-27 23:05:00,
2013-07-27 16:10:00,96.3,58.8,29.86,SW,222,8.0,18.0,29,0.00,,,0.00,691.0,meteohub,2013-07-27 23:10:00,
2013-07-27 16:15:00,96.1,58.6,29.85,SSW,209,6.0,18.0,29,0.00,,,0.00,680.0,meteohub,2013-07-27 23:15:00,
2013-07-27 16:20:00,95.5,58.3,29.85,South,173,6.0,18.0,29,0.00,,,0.00,668.0,meteohub,2013-07-27 23:20:00,
2013-07-27 16:25:00,95.4,58.1,29.85,SW,217,8.0,18.0,29,0.00,,,0.00,652.0,meteohub,2013-07-27 23:25:00,
2013-07-27 16:30:00,95.5,58.3,29.85,SSW,198,10.0,18.0,29,0.00,,,0.00,633.0,meteohub,2013-07-27 23:30:00,
2013-07-27 16:35:00,95.2,57.9,29.85,South,186,7.0,18.0,29,0.00,,,0.00,622.0,meteohub,2013-07-27 23:35:00,
2013-07-27 16:40:00,94.8,58.5,29.85,SSW,213,6.0,23.0,30,0.00,,,0.00,606.0,meteohub,2013-07-27 23:40:00,
2013-07-27 16:45:00,94.3,58.1,29.85,SSW,200,13.0,23.0,30,0.00,,,0.00,594.0,meteohub,2013-07-27 23:45:00,
2013-07-27 16:50:00,93.9,57.7,29.85,SW,228,12.0,23.0,30,0.00,,,0.00,578.0,meteohub,2013-07-27 23:50:00,
2013-07-27 16:55:00,93.6,57.4,29.85,SW,219,7.0,23.0,30,0.00,,,0.00,563.0,meteohub,2013-07-27 23:55:00,
2013-07-27 17:01:00,93.6,57.4,29.85,SW,215,9.0,23.0,30,0.00,,,0.00,550.0,meteohub,2013-07-28 00:01:00,
2013-07-27 17:06:00,92.8,56.8,29.85,South,189,11.0,23.0,30,0.00,,,0.00,533.0,meteohub,2013-07-28 00:06:00,
2013-07-27 17:11:00,92.7,57.6,29.85,South,190,10.0,23.0,31,0.00,,,0.00,513.0,meteohub,2013-07-28 00:11:00,
2013-07-27 17:15:00,92.8,57.7,29.85,SSW,209,7.0,23.0,31,0.00,,,0.00,487.0,meteohub,2013-07-28 00:15:00,
2013-07-27 17:21:00,93.0,58.8,29.84,South,187,6.0,23.0,32,0.00,,,0.00,473.0,meteohub,2013-07-28 00:21:00,
2013-07-27 17:26:00,93.0,57.9,29.84,SSW,209,6.0,27.0,31,0.00,,,0.00,452.0,meteohub,2013-07-28 00:26:00,
2013-07-27 17:31:00,92.7,57.6,29.84,SW,222,14.0,27.0,31,0.00,,,0.00,450.0,meteohub,2013-07-28 00:31:00,
2013-07-27 17:36:00,92.1,58.1,29.84,South,184,6.0,27.0,32,0.00,,,0.00,427.0,meteohub,2013-07-28 00:36:00,
2013-07-27 17:41:00,92.5,58.3,29.84,SW,215,8.0,27.0,32,0.00,,,0.00,408.0,meteohub,2013-07-28 00:41:00,
2013-07-27 17:46:00,91.9,58.6,29.84,SSE,155,11.0,27.0,33,0.00,,,0.00,392.0,meteohub,2013-07-28 00:46:00,
2013-07-27 17:51:00,91.9,58.6,29.83,SW,233,5.0,27.0,33,0.00,,,0.00,371.0,meteohub,2013-07-28 00:51:00,
2013-07-27 17:56:00,91.9,57.0,29.83,SSW,198,10.0,27.0,31,0.00,,,0.00,352.0,meteohub,2013-07-28 00:56:00,
2013-07-27 18:01:00,91.2,58.1,29.83,SSW,196,9.0,27.0,33,0.00,,,0.00,334.0,meteohub,2013-07-28 01:01:00,
2013-07-27 18:06:00,90.9,57.7,29.83,South,190,5.0,27.0,33,0.00,,,0.00,313.0,meteohub,2013-07-28 01:06:00,
2013-07-27 18:11:00,90.9,57.7,29.83,SW,219,10.0,23.0,33,0.00,,,0.00,288.0,meteohub,2013-07-28 01:11:00,
2013-07-27 18:16:00,90.7,56.8,29.83,SSW,213,8.0,23.0,32,0.00,,,0.00,278.0,meteohub,2013-07-28 01:16:00,
2013-07-27 18:21:00,90.1,57.2,29.83,SSW,209,9.0,23.0,33,0.00,,,0.00,251.0,meteohub,2013-07-28 01:21:00,
2013-07-27 18:27:00,90.0,57.0,29.83,SSW,212,4.0,23.0,33,0.00,,,0.00,237.0,meteohub,2013-07-28 01:27:00,
2013-07-27 18:32:00,89.8,57.7,29.84,SSW,195,5.0,23.0,34,0.00,,,0.00,221.0,meteohub,2013-07-28 01:32:00,
2013-07-27 18:37:00,89.8,58.5,29.83,South,171,4.0,23.0,35,0.00,,,0.00,199.0,meteohub,2013-07-28 01:37:00,
2013-07-27 18:42:00,89.2,57.2,29.84,SW,217,11.0,23.0,34,0.00,,,0.00,171.0,meteohub,2013-07-28 01:42:00,
2013-07-27 18:47:00,88.9,56.8,29.84,SSW,204,8.0,23.0,34,0.00,,,0.00,153.0,meteohub,2013-07-28 01:47:00,
2013-07-27 18:52:00,88.5,57.4,29.84,SSW,200,6.0,23.0,35,0.00,,,0.00,81.0,meteohub,2013-07-28 01:52:00,
2013-07-27 18:57:00,88.2,57.0,29.84,SW,223,8.0,23.0,35,0.00,,,0.00,118.0,meteohub,2013-07-28 01:57:00,
2013-07-27 19:02:00,88.0,57.7,29.84,SW,217,2.0,20.0,36,0.00,,,0.00,104.0,meteohub,2013-07-28 02:02:00,
2013-07-27 19:07:00,87.6,56.7,29.84,SW,223,12.0,20.0,35,0.00,,,0.00,84.0,meteohub,2013-07-28 02:07:00,
2013-07-27 19:12:00,87.4,56.5,29.84,SW,222,11.0,20.0,35,0.00,,,0.00,69.0,meteohub,2013-07-28 02:12:00,
2013-07-27 19:17:00,87.3,57.0,29.84,SW,221,5.0,20.0,36,0.00,,,0.00,56.0,meteohub,2013-07-28 02:17:00,
2013-07-27 19:22:00,87.1,56.8,29.84,SW,229,5.0,20.0,36,0.00,,,0.00,42.0,meteohub,2013-07-28 02:22:00,
2013-07-27 19:27:00,86.5,56.5,29.84,SW,217,9.0,20.0,36,0.00,,,0.00,35.0,meteohub,2013-07-28 02:27:00,
2013-07-27 19:32:00,86.4,56.3,29.84,SW,217,7.0,20.0,36,0.00,,,0.00,26.0,meteohub,2013-07-28 02:32:00,
2013-07-27 19:37:00,86.0,56.7,29.84,SW,226,3.0,20.0,37,0.00,,,0.00,19.0,meteohub,2013-07-28 02:37:00,
2013-07-27 19:42:00,85.6,56.3,29.84,SSW,196,6.0,20.0,37,0.00,,,0.00,14.0,meteohub,2013-07-28 02:42:00,
2013-07-27 19:47:00,85.3,56.8,29.85,SSW,211,10.0,20.0,38,0.00,,,0.00,11.0,meteohub,2013-07-28 02:47:00,
2013-07-27 19:52:00,84.9,56.5,29.85,SW,224,9.0,20.0,38,0.00,,,0.00,7.0,meteohub,2013-07-28 02:52:00,
2013-07-27 19:58:00,84.6,56.1,29.85,SW,235,4.0,18.0,38,0.00,,,0.00,5.0,meteohub,2013-07-28 02:58:00,
2013-07-27 20:03:00,84.4,55.9,29.85,SW,229,8.0,18.0,38,0.00,,,0.00,0.0,meteohub,2013-07-28 03:03:00,
2013-07-27 20:08:00,84.2,55.8,29.85,SW,223,6.0,18.0,38,0.00,,,0.00,0.0,meteohub,2013-07-28 03:08:00,
2013-07-27 20:13:00,83.8,55.6,29.86,SW,221,12.0,18.0,38,0.00,,,0.00,0.0,meteohub,2013-07-28 03:13:00,
2013-07-27 20:18:00,83.8,55.6,29.86,SW,223,2.0,18.0,38,0.00,,,0.00,0.0,meteohub,2013-07-28 03:18:00,
2013-07-27 20:23:00,83.7,55.4,29.86,SW,235,10.0,18.0,38,0.00,,,0.00,0.0,meteohub,2013-07-28 03:23:00,
2013-07-27 20:28:00,83.5,55.2,29.86,SW,217,10.0,18.0,38,0.00,,,0.00,0.0,meteohub,2013-07-28 03:28:00,
2013-07-27 20:33:00,83.1,54.9,29.86,WSW,240,6.0,18.0,38,0.00,,,0.00,0.0,meteohub,2013-07-28 03:33:00,
2013-07-27 20:38:00,82.9,54.7,29.86,SSW,213,3.0,18.0,38,0.00,,,0.00,0.0,meteohub,2013-07-28 03:38:00,
2013-07-27 20:43:00,82.9,54.7,29.86,SSW,213,4.0,18.0,38,0.00,,,0.00,0.0,meteohub,2013-07-28 03:43:00,
2013-07-27 20:48:00,82.8,54.5,29.87,SW,221,6.0,15.0,38,0.00,,,0.00,0.0,meteohub,2013-07-28 03:48:00,
2013-07-27 20:53:00,82.6,55.0,29.87,SSW,209,8.0,15.0,39,0.00,,,0.00,0.0,meteohub,2013-07-28 03:53:00,
2013-07-27 20:58:00,82.4,55.0,29.87,SSW,199,0.0,15.0,39,0.00,,,0.00,0.0,meteohub,2013-07-28 03:58:00,
2013-07-27 21:01:00,82.4,55.0,29.87,SW,214,2.0,15.0,39,0.00,,,0.00,0.0,meteohub,2013-07-28 04:01:00,
2013-07-27 21:02:00,82.2,54.1,29.87,SW,217,2.0,15.0,38,0.00,,,0.00,0.0,meteohub,2013-07-28 04:02:00,
2013-07-27 21:07:00,82.2,54.9,29.87,SSW,205,2.0,15.0,39,0.00,,,0.00,0.0,meteohub,2013-07-28 04:07:00,
2013-07-27 21:12:00,82.2,54.9,29.87,SSW,210,2.0,15.0,39,0.00,,,0.00,0.0,meteohub,2013-07-28 04:12:00,
2013-07-27 21:16:00,82.0,54.7,29.87,SSW,206,6.0,15.0,39,0.00,,,0.00,0.0,meteohub,2013-07-28 04:16:00,
2013-07-27 21:32:00,82.0,54.0,29.88,SW,221,4.0,11.0,38,0.00,,,0.00,0.0,meteohub,2013-07-28 04:32:00,
2013-07-27 21:37:00,82.0,53.2,29.88,SW,223,4.0,11.0,37,0.00,,,0.00,0.0,meteohub,2013-07-28 04:37:00,
2013-07-27 21:42:00,82.0,53.2,29.88,South,181,3.0,11.0,37,0.00,,,0.00,0.0,meteohub,2013-07-28 04:42:00,
2013-07-27 21:47:00,82.0,53.2,29.88,SSW,202,1.0,11.0,37,0.00,,,0.00,0.0,meteohub,2013-07-28 04:47:00,
2013-07-27 21:52:00,82.0,53.2,29.88,SW,225,2.0,11.0,37,0.00,,,0.00,0.0,meteohub,2013-07-28 04:52:00,
2013-07-27 21:57:00,82.2,53.4,29.88,SW,225,1.0,11.0,37,0.00,,,0.00,0.0,meteohub,2013-07-28 04:57:00,
2013-07-27 22:02:00,82.0,54.0,29.88,SW,225,0.0,11.0,38,0.00,,,0.00,0.0,meteohub,2013-07-28 05:02:00,
2013-07-27 22:07:00,81.9,53.8,29.88,SW,225,0.0,11.0,38,0.00,,,0.00,0.0,meteohub,2013-07-28 05:07:00,
2013-07-27 22:12:00,81.9,53.8,29.88,SW,225,0.0,11.0,38,0.00,,,0.00,0.0,meteohub,2013-07-28 05:12:00,
2013-07-27 22:17:00,81.7,52.9,29.88,SSW,208,0.0,11.0,37,0.00,,,0.00,0.0,meteohub,2013-07-28 05:17:00,
2013-07-27 22:22:00,81.7,52.9,29.88,SSW,201,4.0,4.0,37,0.00,,,0.00,0.0,meteohub,2013-07-28 05:22:00,
2013-07-27 22:27:00,81.7,52.2,29.87,SSW,204,0.0,4.0,36,0.00,,,0.00,0.0,meteohub,2013-07-28 05:27:00,
2013-07-27 22:32:00,81.7,52.2,29.88,SSW,207,0.0,4.0,36,0.00,,,0.00,0.0,meteohub,2013-07-28 05:32:00,
2013-07-27 22:37:00,81.7,52.2,29.87,SSW,208,0.0,4.0,36,0.00,,,0.00,0.0,meteohub,2013-07-28 05:37:00,
2013-07-27 22:42:00,81.9,52.3,29.87,SSW,208,0.0,4.0,36,0.00,,,0.00,0.0,meteohub,2013-07-28 05:42:00,
2013-07-27 22:47:00,81.9,51.4,29.87,SSW,209,0.0,4.0,35,0.00,,,0.00,0.0,meteohub,2013-07-28 05:47:00,
2013-07-27 22:52:00,81.9,51.4,29.87,SSW,208,4.0,4.0,35,0.00,,,0.00,0.0,meteohub,2013-07-28 05:52:00,
2013-07-27 22:57:00,81.7,51.4,29.87,SSW,208,0.0,4.0,35,0.00,,,0.00,0.0,meteohub,2013-07-28 05:57:00,
2013-07-27 23:02:00,81.7,52.2,29.87,SSW,209,0.0,7.0,36,0.00,,,0.00,0.0,meteohub,2013-07-28 06:02:00,
2013-07-27 23:07:00,81.7,52.2,29.87,SSW,209,5.0,7.0,36,0.00,,,0.00,0.0,meteohub,2013-07-28 06:07:00,
2013-07-27 23:12:00,81.7,52.2,29.87,SSW,209,1.0,7.0,36,0.00,,,0.00,0.0,meteohub,2013-07-28 06:12:00,
2013-07-27 23:17:00,81.7,52.2,29.86,SSW,209,1.0,7.0,36,0.00,,,0.00,0.0,meteohub,2013-07-28 06:17:00,
2013-07-27 23:22:00,81.7,52.2,29.86,SSW,209,0.0,7.0,36,0.00,,,0.00,0.0,meteohub,2013-07-28 06:22:00,
2013-07-27 23:27:00,81.7,52.2,29.86,SSW,211,6.0,7.0,36,0.00,,,0.00,0.0,meteohub,2013-07-28 06:27:00,
2013-07-27 23:32:00,81.7,52.2,29.86,SSW,212,1.0,7.0,36,0.00,,,0.00,0.0,meteohub,2013-07-28 06:32:00,
2013-07-27 23:33:00,81.7,52.9,29.87,SSW,212,1.0,7.0,37,0.00,,,0.00,0.0,meteohub,2013-07-28 06:33:00,
2013-07-27 23:38:00,81.7,52.2,29.86,SW,215,0.0,7.0,36,0.00,,,0.00,0.0,meteohub,2013-07-28 06:38:00,
2013-07-27 23:43:00,81.7,52.2,29.86,SW,216,1.0,7.0,36,0.00,,,0.00,0.0,meteohub,2013-07-28 06:43:00,
2013-07-27 23:48:00,81.7,52.9,29.86,SW,217,0.0,7.0,37,0.00,,,0.00,0.0,meteohub,2013-07-28 06:48:00,
2013-07-27 23:53:00,81.7,52.9,29.86,SW,217,0.0,10.0,37,0.00,,,0.00,0.0,meteohub,2013-07-28 06:53:00,
2013-07-27 23:58:00,81.5,52.7,29.87,SW,217,0.0,10.0,37,0.00,,,0.00,0.0,meteohub,2013-07-28 06:58:00,